AirNav   Pilot Hours Calculator
 
 504 users online  

05PN State Police Area III Heliport
Harrisburg, Pennsylvania, USA

GOING TO HARRISBURG?


FAA INFORMATION EFFECTIVE 15 JULY 2021

Location

FAA Identifier: 05PN
Lat/Long: 40-18-00.3190N 076-51-28.9020W
40-18.005317N 076-51.481700W
40.3000886,-76.8580283
(estimated)
Elevation: 485 ft. / 148 m (estimated)
Variation: 10W (1985)
From city: 3 miles SW of HARRISBURG, PA
Time zone: UTC -4 (UTC -5 during Standard Time)
Zip code: 17110

Heliport Operations

Heliport use: Private use. Permission required prior to landing
Activation date: 06/1978
Control tower: no
ARTCC: NEW YORK CENTER
FSS: WILLIAMSPORT FLIGHT SERVICE STATION
Attendance: CONTINUOUS
Wind indicator: yes
Segmented circle: no

Heliport Communications

WX ASOS at CXY (5 nm S): PHONE 717-770-0880
WX ASOS at MDT (8 nm SE): 118.8 (717-944-1372)
WX ASOS at MUI (16 nm NE): 124.175 (717-861-2536)

Nearby radio navigation aids

VOR radial/distance  VOR name  Freq  Var
HARr101/9.7HARRISBURG VORTAC112.5010W
RAVr229/19.2RAVINE VORTAC114.6011W
LRPr302/28.1LANCASTER VOR/DME117.3009W
SEGr186/29.5SELINSGROVE VOR/DME110.4008W

 
NDB name  Hdg/Dist  Freq  Var  ID
ENOLA042/3.820411WMD -- -..
LATLE054/10.021911WCX -.-. -..-
BELLGROVE250/16.132810WBZJ -... --.. .---

Heliport Services

Runway Information

Helipad H1

Dimensions: 120 x 120 ft. / 37 x 37 m
Surface: asphalt, in fair condition
Latitude: 40-18.005317N
Longitude: 076-51.481700W
Elevation: 485.0 ft.
Traffic pattern: leftleft
Markings: none, in fair condition

Heliport Ownership and Management from official FAA records

Ownership: Publicly-owned
Owner: PENN STATE POLICE
1800 ELMERTON AVE.
HARRISBURG, PA 17110
Phone 717-787-7777
Manager: GARY T. VOGUE
P.O. BOX 444
HERSHEY, PA 17033
Phone 717-783-5511
171 EAST HERSHEY PARK DRIVE.

Additional Remarks

FOR CD CTC HARRISBURG APCH AT 800-932-0712.

Instrument Procedures

There are no published instrument procedures at 05PN.

Some nearby airports with instrument procedures:

KCXY - Capital City Airport (5 nm S)
KMDT - Harrisburg International Airport (8 nm SE)
58N - Reigle Field Airport (13 nm E)
KMUI - Muir Army Airfield (Fort Indiantown Gap) (16 nm NE)
N94 - Carlisle Airport (16 nm SW)
N71 - Donegal Springs Airpark (18 nm SE)
 
Loc | Ops | Rwys | IFR | FBO | Links
Com | Nav | Svcs | Stats | Notes
Area around 05PN (State Police Area III Heliport)
 
Road maps at: MapQuest Bing Google
 
Aerial photo
No photo
 
Sectional chart

 
Airport distance calculator
Flying to State Police Area III Heliport? Find the distance to fly.

From to 05PN

Sunrise and sunset
Times for 31-Jul-2021
 Local
(UTC-4)
 Zulu
(UTC)
Morning civil twilight05:3509:35
Sunrise06:0510:05
Sunset20:2200:22
Evening civil twilight20:5300:53

Current date and time
Zulu (UTC)  31-Jul-2021 06:21:54
Local (UTC-4)  31-Jul-2021 02:21:54
 
METAR
KCXY 
5nm S 
310556Z AUTO 36003KT 10SM CLR 19/10 A3002 RMK AO2 SLP163 T01940100 10272 20194 51011
KMDT 
7nm SE 
310556Z 36006KT 10SM FEW250 19/10 A3001 RMK AO2 SLP159 T01890100 10261 20183 51009
KMUI 
15nm NE 
310556Z AUTO 00000KT 10SM CLR 16/11 A3002 RMK AO2 SLP166 T01550107 10241 20153 52008
TAF
KMDT 
7nm SE 
310528Z 3106/0106 00000KT P6SM SKC FM311300 26006KT P6SM SKC FM010000 00000KT P6SM SKC
KMUI 
15nm NE 
301900Z 3019/0101 30012KT 9999 SCT050 QNH2988INS BECMG 3022/3023 34009KT 9999 FEW050 QNH2990INS BECMG 3116/3117 33010G15KT 9999 FEW050 QNH3004INS BECMG 3121/3122 34006KT 9999 FEW050 QNH2997INS TX29/3119Z TN13/3110Z LAST NO AMDS AFT 3105 NEXT 0211
NOTAMs
Click for the latest NOTAMs
NOTAMs are issued by the DoD/FAA and will open in a separate window not controlled by AirNav.

 

 
 

Would you like to see your business listed on this page?

 If your business provides an interesting product or service to pilots, flight crews, aircraft, or users of the State Police Area III Heliport, you should consider listing it here.  To start the listing process, click on the button below
 
Add a business
 

Other Pages about State Police Area III Heliport

Update a link
 
Copyright © AirNav, LLC. All rights reserved. Privacy Policy  Contact